Ponca City, OK

5:59 PM CST on January 16, 2018 (GMT -0600)
Ponca City Municipal

Weather History for KPNC - January, 2013

Change the Weather History Date:

Friday, January 11, 2013

  Actual Average Record
Temperature  
Mean Temperature 56 °F -  
Max Temperature 66 °F 44 °F 72 °F (2017)
Min Temperature 46 °F 22 °F 0 °F (1973)
Degree Days  
Heating Degree Days 9    
Growing Degree Days 6 (Base 50)    
Moisture  
Dew Point 43 °F    
Average Humidity 67    
Maximum Humidity 94    
Minimum Humidity 37    
Precipitation  
Precipitation 0.01 in - - ()
Sea Level Pressure  
Sea Level Pressure 29.70 in    
Wind  
Wind Speed 11 mph (SSW)    
Max Wind Speed 20 mph    
Max Gust Speed 31 mph    
Visibility 10 miles    
Events      
Averages and records for this station are not official NWS values.
T = Trace of Precipitation, MM = Missing Value Source: NWS Daily Summary

Daily Weather History Graph

Daily Weather History Graph

Search for Another Location

Airport or City:

Trip Planner

Search our weather history database for the weather conditions in past years. The results will help you decide how hot, cold, wet, or windy it might be!

Date:

Astronomy

Jan. 11, 2013 Rise Set
Actual Time 7:40 AM CST 5:32 PM CST
Civil Twilight 7:12 AM CST 6:00 PM CST
Nautical Twilight 6:40 AM CST 6:32 PM CST
Astronomical Twilight 6:09 AM CST 7:03 PM CST
Moon 7:16 AM CST (1/11) 5:50 PM CST (1/11)
Length of Visible Light 10h 48m
Length of Day
9h 51m
Waning Crescent, 0% of the Moon is Illuminated
Jan 11
Waning Crescent
Jan 11
New
Jan 18
First Quarter
Jan 26
Full
Feb 3
Last Quarter

Hourly Weather History & Observations

Time (CST) Temp. Dew Point Humidity Pressure Visibility Wind Dir Wind Speed Gust Speed Precip Events Conditions
12:02 AM 50.0 °F 48.2 °F 94% 29.81 in 10.0 mi SSW 12.7 mph 20.7 mph N/A   Overcast
12:25 AM 50.0 °F 46.4 °F 87% 29.80 in 10.0 mi SSW 9.2 mph - N/A   Scattered Clouds
12:53 AM 48.9 °F 46.0 °F 90% 29.79 in 10.0 mi South 5.8 mph - N/A   Clear
1:53 AM 48.0 °F 45.0 °F 89% 29.77 in 10.0 mi South 6.9 mph - N/A   Clear
2:53 AM 48.0 °F 45.0 °F 89% 29.75 in 10.0 mi South 10.4 mph - N/A   Clear
3:53 AM 48.9 °F 45.0 °F 86% 29.71 in 10.0 mi South 16.1 mph 23.0 mph N/A   Clear
4:53 AM 46.9 °F 44.1 °F 90% 29.70 in 10.0 mi South 9.2 mph 17.3 mph N/A   Clear
5:53 AM 48.0 °F 44.1 °F 86% 29.68 in 10.0 mi South 11.5 mph 19.6 mph N/A   Clear
6:53 AM 48.0 °F 44.1 °F 86% 29.68 in 10.0 mi South 15.0 mph 23.0 mph N/A   Clear
7:53 AM 48.0 °F 43.0 °F 83% 29.70 in 10.0 mi South 10.4 mph 23.0 mph N/A   Clear
8:53 AM 48.0 °F 43.0 °F 83% 29.73 in 10.0 mi South 9.2 mph 19.6 mph N/A   Clear
9:53 AM 50.0 °F 44.1 °F 80% 29.71 in 10.0 mi South 9.2 mph - N/A   Clear
10:53 AM 57.9 °F 46.0 °F 65% 29.69 in 10.0 mi SSW 15.0 mph 27.6 mph 0.01 in   Clear
11:53 AM 57.9 °F 44.1 °F 60% 29.66 in 10.0 mi South 13.8 mph 24.2 mph N/A   Clear
12:53 PM 60.1 °F 45.0 °F 57% 29.63 in 10.0 mi SSW 10.4 mph 19.6 mph N/A   Clear
1:53 PM 64.9 °F 44.1 °F 47% 29.60 in 10.0 mi SSW 16.1 mph 26.5 mph N/A   Clear
2:53 PM 64.9 °F 44.1 °F 47% 29.60 in 10.0 mi SSW 19.6 mph 31.1 mph N/A   Clear
3:53 PM 66.0 °F 44.1 °F 45% 29.60 in 10.0 mi South 12.7 mph 21.9 mph N/A   Clear
4:53 PM 64.9 °F 44.1 °F 47% 29.62 in 10.0 mi SSW 15.0 mph 24.2 mph N/A   Clear
5:53 PM 64.0 °F 44.1 °F 48% 29.63 in 10.0 mi South 8.1 mph - N/A   Clear
6:53 PM 63.0 °F 44.1 °F 50% 29.65 in 10.0 mi South 8.1 mph - N/A   Clear
7:53 PM 62.1 °F 45.0 °F 53% 29.67 in 10.0 mi South 9.2 mph - N/A   Clear
8:53 PM 59.0 °F 46.0 °F 62% 29.73 in 10.0 mi West 9.2 mph - N/A   Partly Cloudy
9:53 PM 59.0 °F 36.0 °F 42% 29.76 in 10.0 mi WNW 13.8 mph 23.0 mph N/A   Clear
10:53 PM 55.0 °F 28.9 °F 37% 29.78 in 10.0 mi West 8.1 mph - N/A   Clear
11:53 PM 51.1 °F 28.0 °F 41% 29.81 in 10.0 mi WNW 5.8 mph - N/A   Clear